Weather History for De Kooy, Netherlands

Change the Weather History Date:

Friday, March 22, 2013

  Actual Average Record
Temperature  
Mean Temperature 33 °F -  
Max Temperature 37 °F 49 °F 64 °F (2005)
Min Temperature 29 °F 39 °F 28 °F (2006)
Degree Days  
Heating Degree Days 32    
Moisture  
Dew Point 25 °F    
Average Humidity 74    
Maximum Humidity 88    
Minimum Humidity 56    
Precipitation  
Precipitation 0.00 in 0.06 in - ()
Sea Level Pressure  
Sea Level Pressure 30.09 in    
Wind  
Wind Speed 17 mph ()    
Max Wind Speed 29 mph    
Max Gust Speed 40 mph    
Visibility 6.1 miles    
Events      
Averages and records for this station are not official NWS values.
T = Trace of Precipitation, MM = Missing Value Source: Averaged Metar Reports

Daily Weather History Graph

Daily Weather History Graph

Search for Another Location

Airport:

Trip Planner

Search our weather history database for the weather conditions in past years. The results will help you decide how hot, cold, wet, or windy it might be!

Date:

Astronomy

Mar. 22, 2013 Rise Set
Actual Time 6:38 AM CET 6:57 PM CET
Civil Twilight 6:04 AM CET 7:32 PM CET
Nautical Twilight 5:23 AM CET 8:13 PM CET
Astronomical Twilight 4:40 AM CET 8:56 PM CET
Moon 1:35 PM CET (3/22) 4:05 AM CET (3/22)
Length of Visible Light 13h 28m
Length of Day
12h 19m
Waxing Gibbous, 75% of the Moon is Illuminated
Mar 22
Waxing Gibbous
Mar 27
Full
Apr 3
Last Quarter
Apr 10
New
Apr 18
First Quarter

Hourly Weather History & Observations

Time (CET) Temp. Windchill Dew Point Humidity Pressure Visibility Wind Dir Wind Speed Gust Speed Precip Events Conditions
12:25 AM 30.2 °F 19.8 °F 23.0 °F 75% 30.18 in 6.2 mi East 13.8 mph - N/A   Partly Cloudy
12:55 AM 30.2 °F 19.3 °F 23.0 °F 75% 30.15 in 6.2 mi East 15.0 mph - N/A   Partly Cloudy
1:00 AM 30 °F - 23 °F 67% 30.18 in 22 mi East 13.4 mph - -   Partly Cloudy
1:25 AM 30.2 °F 20.2 °F 23.0 °F 75% 30.15 in 6.2 mi East 12.7 mph - N/A   Partly Cloudy
1:55 AM 30.2 °F 19.8 °F 23.0 °F 75% 30.15 in 6.2 mi East 13.8 mph - N/A   Scattered Clouds
2:25 AM 30.2 °F 18.9 °F 23.0 °F 75% 30.15 in 6.2 mi East 16.1 mph - N/A   Scattered Clouds
2:55 AM 30.2 °F 18.5 °F 24.8 °F 80% 30.15 in 6.2 mi East 17.3 mph - N/A   Partly Cloudy
3:18 AM 30.2 °F 18.9 °F 24.8 °F 80% 30.12 in 6.2 mi East 16.1 mph - N/A   Scattered Clouds
3:25 AM 30.2 °F 18.5 °F 24.8 °F 80% 30.12 in 6.2 mi East 17.3 mph - N/A   Partly Cloudy
3:46 AM 30.2 °F 18.9 °F 24.8 °F 80% 30.12 in 6.2 mi East 16.1 mph - N/A   Scattered Clouds
3:55 AM 30.2 °F 18.5 °F 24.8 °F 80% 30.12 in 6.2 mi East 17.3 mph - N/A   Scattered Clouds
3:57 AM 30.2 °F 18.5 °F 24.8 °F 80% 30.12 in 6.2 mi East 17.3 mph - N/A   Partly Cloudy
4:00 AM 30 °F - 25 °F 74% 30.14 in 11 mi East 15.7 mph - -  
4:25 AM 30.2 °F 18.9 °F 24.8 °F 80% 30.12 in 6.2 mi East 16.1 mph - N/A   Partly Cloudy
4:40 AM 30.2 °F 18.5 °F 24.8 °F 80% 30.12 in 6.2 mi East 17.3 mph - N/A   Scattered Clouds
4:44 AM 30.2 °F 18.5 °F 26.6 °F 86% 30.12 in 6.2 mi East 17.3 mph - N/A   Mostly Cloudy
4:55 AM 30.2 °F 18.5 °F 26.6 °F 86% 30.12 in 6.2 mi East 17.3 mph - N/A   Overcast
4:57 AM 30.2 °F 18.9 °F 26.6 °F 86% 30.12 in 6.2 mi East 16.1 mph - N/A   Overcast
5:25 AM 30.2 °F 19.3 °F 26.6 °F 86% 30.12 in 6.2 mi East 15.0 mph - N/A   Mostly Cloudy
5:55 AM 30.2 °F 19.8 °F 26.6 °F 86% 30.12 in 5.0 mi East 13.8 mph - N/A   Mostly Cloudy
5:57 AM 30.2 °F 19.3 °F 26.6 °F 86% 30.12 in 5.0 mi East 15.0 mph - N/A   Mostly Cloudy
6:09 AM 30.2 °F 19.3 °F 26.6 °F 86% 30.12 in 4.3 mi East 15.0 mph - N/A   Overcast
6:25 AM 30.2 °F 18.9 °F 26.6 °F 86% 30.12 in 3.7 mi East 16.1 mph - N/A   Overcast
6:42 AM 30.2 °F 19.3 °F 26.6 °F 86% 30.12 in 3.7 mi East 15.0 mph - N/A   Overcast
6:55 AM 30.2 °F 19.3 °F 26.6 °F 86% 30.12 in 3.7 mi East 15.0 mph - N/A   Overcast
7:00 AM 29 °F - 27 °F 88% 30.14 in 4 mi East 15.7 mph - -   Mist
7:25 AM 30.2 °F 18.5 °F 26.6 °F 86% 30.12 in 3.7 mi East 17.3 mph - N/A   Overcast
7:55 AM 30.2 °F 18.1 °F 26.6 °F 86% 30.12 in 5.0 mi East 18.4 mph - N/A   Overcast
8:25 AM 30.2 °F 18.5 °F 26.6 °F 86% 30.12 in 4.3 mi East 17.3 mph - N/A   Overcast
8:55 AM 30.2 °F 18.5 °F 26.6 °F 86% 30.12 in 3.7 mi East 17.3 mph - N/A   Overcast
9:25 AM 30.2 °F 18.1 °F 26.6 °F 86% 30.12 in 5.0 mi East 18.4 mph - N/A   Overcast
9:38 AM 30.2 °F 18.1 °F 26.6 °F 86% 30.12 in 5.6 mi East 18.4 mph - N/A   Overcast
9:55 AM 30.2 °F 18.5 °F 26.6 °F 86% 30.12 in 5.6 mi East 17.3 mph - N/A   Overcast
10:00 AM 31 °F - 26 °F 73% 30.13 in 6 mi East 17.9 mph - -   Mist
10:25 AM 32.0 °F 20.1 °F 26.6 °F 80% 30.12 in 6.2 mi East 19.6 mph - N/A   Overcast
10:55 AM 32.0 °F 19.8 °F 24.8 °F 75% 30.09 in 6.2 mi East 20.7 mph - N/A   Mostly Cloudy
11:25 AM 32.0 °F 20.1 °F 26.6 °F 80% 30.09 in 6.2 mi East 19.6 mph - N/A   Overcast
11:31 AM 32.0 °F 20.1 °F 24.8 °F 75% 30.09 in 6.2 mi East 19.6 mph - N/A   Overcast
11:55 AM 33.8 °F 22.8 °F 26.6 °F 75% 30.09 in 6.2 mi East 18.4 mph - N/A   Overcast
12:25 PM 33.8 °F 22.2 °F 26.6 °F 75% 30.09 in 6.2 mi East 20.7 mph - N/A   Mostly Cloudy
12:55 PM 35.6 °F 25.2 °F 26.6 °F 70% 30.09 in 6.2 mi East 18.4 mph - N/A   Overcast
1:00 PM 35 °F - 26 °F 60% 30.09 in 10 mi East 17.9 mph - -   Partly Cloudy
1:25 PM 37.4 °F 27.5 °F 26.6 °F 65% 30.06 in 6.2 mi East 18.4 mph 29.9 mph N/A   Scattered Clouds
1:27 PM 35.6 °F 24.8 °F 24.8 °F 65% 30.06 in 6.2 mi East 19.6 mph - N/A   Partly Cloudy
1:55 PM 37.4 °F 26.6 °F 26.6 °F 65% 30.06 in 6.2 mi East 21.9 mph - N/A   Mostly Cloudy
2:25 PM 35.6 °F 24.0 °F 24.8 °F 65% 30.04 in 6.2 mi East 23.0 mph 35.7 mph N/A   Scattered Clouds
2:55 PM 35.6 °F 23.7 °F 24.8 °F 65% 30.04 in 6.2 mi East 24.2 mph - N/A   Mostly Cloudy
3:25 PM 35.6 °F 24.0 °F 24.8 °F 65% 30.04 in 6.2 mi East 23.0 mph - N/A   Mostly Cloudy
3:34 PM 35.6 °F 23.4 °F 26.6 °F 70% 30.04 in 6.2 mi East 25.3 mph - N/A   Mostly Cloudy
3:55 PM 35.6 °F 24.2 °F 26.6 °F 70% 30.04 in 6.2 mi East 21.9 mph - N/A   Overcast
4:00 PM 35 °F - 25 °F 56% 30.06 in 17 mi East 20.1 mph - -   Mostly Cloudy
4:25 PM 35.6 °F 24.5 °F 24.8 °F 65% 30.04 in 6.2 mi East 20.7 mph - N/A   Overcast
4:55 PM 33.8 °F 22.2 °F 24.8 °F 70% 30.04 in 6.2 mi East 20.7 mph - N/A   Mostly Cloudy
5:16 PM 33.8 °F 22.2 °F 24.8 °F 70% 30.04 in 6.2 mi East 20.7 mph - N/A   Overcast
5:25 PM 33.8 °F 21.6 °F 24.8 °F 70% 30.04 in 6.2 mi East 23.0 mph - N/A   Overcast
5:27 PM 33.8 °F 21.3 °F 24.8 °F 70% 30.04 in 6.2 mi East 24.2 mph - N/A   Overcast
5:55 PM 33.8 °F 21.0 °F 23.0 °F 65% 30.04 in 6.2 mi East 25.3 mph - N/A   Mostly Cloudy
6:25 PM 33.8 °F 21.3 °F 23.0 °F 65% 30.04 in 6.2 mi East 24.2 mph 35.7 mph N/A   Mostly Cloudy
6:55 PM 33.8 °F 21.6 °F 23.0 °F 65% 30.04 in 6.2 mi East 23.0 mph - N/A   Mostly Cloudy
7:00 PM 33 °F - 24 °F 58% 30.05 in 28 mi East 22.4 mph - -   Partly Cloudy
7:25 PM 33.8 °F 21.6 °F 23.0 °F 65% 30.04 in 6.2 mi East 23.0 mph - N/A   Mostly Cloudy
7:55 PM 33.8 °F 21.9 °F 23.0 °F 65% 30.04 in 6.2 mi East 21.9 mph - N/A   Mostly Cloudy
8:25 PM 33.8 °F 21.3 °F 23.0 °F 65% 30.04 in 6.2 mi East 24.2 mph - N/A   Mostly Cloudy
8:55 PM 33.8 °F 21.6 °F 23.0 °F 65% 30.04 in 6.2 mi East 23.0 mph - N/A   Overcast
9:25 PM 32.0 °F 20.1 °F 23.0 °F 69% 30.06 in 6.2 mi East 19.6 mph - N/A   Partly Cloudy
9:55 PM 32.0 °F 19.2 °F 23.0 °F 69% 30.04 in 6.2 mi East 23.0 mph 35.7 mph N/A   Mostly Cloudy
10:00 PM 32 °F - 22 °F 56% 30.06 in 28 mi East 24.6 mph - -   Scattered Clouds
10:25 PM 32.0 °F 17.9 °F 21.2 °F 64% 30.04 in 6.2 mi East 28.8 mph 40.3 mph N/A   Scattered Clouds
10:55 PM 32.0 °F 18.6 °F 21.2 °F 64% 30.04 in 6.2 mi East 25.3 mph 36.8 mph N/A   Mostly Cloudy
11:25 PM 32.0 °F 18.1 °F 24.8 °F 75% 30.04 in 6.2 mi East 27.6 mph - N/A   Mostly Cloudy
11:29 PM 32.0 °F 18.4 °F 23.0 °F 69% 30.04 in 6.2 mi East 26.5 mph 39.1 mph N/A   Mostly Cloudy
11:33 PM 32.0 °F 18.6 °F 23.0 °F 69% 30.04 in 6.2 mi East 25.3 mph 39.1 mph N/A   Mostly Cloudy
11:55 PM 32.0 °F 18.4 °F 23.0 °F 69% 30.04 in 6.2 mi East 26.5 mph - N/A   Mostly Cloudy
11:59 PM 32.0 °F 18.1 °F 24.8 °F 75% 30.04 in 6.2 mi East 27.6 mph - N/A   Mostly Cloudy